Location: Okie-Tex Star Party
(36.8978°N, 102.9520°W)
Time: 14:09:13
(UTC-05:00)

Amateur Radio Satellites - All Passes

Search period start: 01 September 2014 13:39
Search period end: 02 September 2014 13:39
Location: Okie-Tex Star Party, 36.8978°N, 102.9520°W

Satellite Date Start Highest point End Downlink Frequencies (MHz)
Time Altitude Azimuth
AO-Echo 01 Sep 13:45:17 13:46:09 10° 62° (ENE) 13:47:01 ?
RS-15 01 Sep 13:45:46 13:50:49 14° 4° (N) 13:55:53 29.354 - 29.394 USB, Beacon 29.352 USB
SO-50 01 Sep 13:47:03 13:51:51 71° 242° (WSW) 13:56:41 436.795 FM
MaSat-1 01 Sep 13:47:28 13:52:16 73° 111° (ESE) 13:57:24 437.345 MHz
UOSAT-12 01 Sep 13:57:48 14:00:34 15° 44° (NE) 14:03:19 437.025 FM, 437.400 FM
Oscar 16 01 Sep 14:03:04 14:07:49 39° 70° (ENE) 14:12:36 437.025 USB, Beacon 2401.1428
ITAMSAT 1 01 Sep 14:06:07 14:09:25 17° 64° (ENE) 14:12:44 435.822 SSB
PANSAT 01 Sep 14:09:03 14:12:09 23° 182° (S) 14:15:15 not established
Uribyol 2 01 Sep 14:14:53 14:18:48 22° 66° (ENE) 14:22:43 436.500 FM
AO-27 01 Sep 14:34:09 14:38:43 33° 69° (ENE) 14:43:18 436.795 MHz FM
JAS-1B 01 Sep 14:44:34 14:53:57 55° 70° (ENE) 15:02:24 435.800 - 435.900 CW/SSB
Oscar 19 01 Sep 15:06:46 15:11:46 52° 260° (W) 15:16:50 437.125 CW, 437.150 USB
Gurwin Techsat 1B 01 Sep 15:12:38 15:17:20 34° 69° (ENE) 15:22:04 435.225 FM
AO-Echo 01 Sep 15:19:13 15:24:16 82° 257° (WSW) 15:29:11 ?
MaSat-1 01 Sep 15:26:58 15:29:52 15° 309° (NW) 15:32:49 437.345 MHz
UOSAT-12 01 Sep 15:36:31 15:41:13 70° 242° (WSW) 15:45:49 437.025 FM, 437.400 FM
Oscar 16 01 Sep 15:43:17 15:47:15 22° 265° (W) 15:51:15 437.025 USB, Beacon 2401.1428
ITAMSAT 1 01 Sep 15:43:26 15:48:28 53° 260° (W) 15:53:31 435.822 SSB
PANSAT 01 Sep 15:49:30 15:51:46 15° 195° (SSW) 15:54:02 not established
Uribyol 2 01 Sep 15:53:11 15:57:59 40° 261° (W) 16:02:49 436.500 FM
RS-15 01 Sep 15:59:20 16:08:38 30° 39° (NE) 16:18:08 29.354 - 29.394 USB, Beacon 29.352 USB
TMSAT-1 01 Sep 16:02:15 16:07:31 73° 75° (ENE) 16:12:48 436.925 FM
ISS 01 Sep 16:03:23 16:04:41 12° 21° (NNE) 16:05:58 145.800 FM
Uosat F 01 Sep 16:13:29 16:16:37 17° 64° (ENE) 16:19:45 435.120 FM
AO-27 01 Sep 16:13:54 16:18:13 26° 264° (W) 16:22:32 436.795 MHz FM
Sapphire 01 Sep 16:18:41 16:21:33 15° 103° (ESE) 16:24:25 437.095 MHz 1200 baud AX-25 AFSK
AO-7 01 Sep 16:32:20 16:40:08 46° 65° (ENE) 16:47:55 29.400 - 29.500 MHz
JAS-1B 01 Sep 16:35:40 16:44:26 37° 263° (W) 16:52:34 435.800 - 435.900 CW/SSB
PCSat 01 Sep 16:45:52 16:50:30 30° 108° (ESE) 16:55:09 145.825 MHz
Gurwin Techsat 1B 01 Sep 16:52:51 16:57:17 27° 264° (W) 17:01:44 435.225 FM
ISS 01 Sep 17:38:42 17:41:59 58° 38° (NE) 17:45:16 145.800 FM
OPAL 01 Sep 17:42:57 17:47:25 28° 98° (E) 17:51:50 ?
TMSAT-1 01 Sep 17:46:10 17:47:55 12° 270° (W) 17:49:42 436.925 FM
Uosat F 01 Sep 17:50:05 17:54:57 52° 260° (W) 17:59:50 435.120 FM
Sapphire 01 Sep 17:58:59 18:04:20 65° 299° (WNW) 18:09:44 437.095 MHz 1200 baud AX-25 AFSK
RS-15 01 Sep 18:11:13 18:22:23 85° 242° (WSW) 18:34:01 29.354 - 29.394 USB, Beacon 29.352 USB
JAS-2 01 Sep 18:20:59 18:26:25 35° 70° (ENE) 18:31:22 435.800 - 435.900 CW/SSB, 435.910 FM
AO-7 01 Sep 18:25:25 18:32:56 37° 261° (W) 18:40:29 29.400 - 29.500 MHz
PCSat 01 Sep 18:28:54 18:33:47 34° 305° (NW) 18:38:42 145.825 MHz
Hamsat 01 Sep 19:12:47 19:17:05 73° 259° (WSW) 19:21:27 145.90 MHz
ISS 01 Sep 19:17:01 19:18:20 12° 233° (SW) 19:19:40 145.800 FM
OPAL 01 Sep 19:21:38 19:26:14 32° 293° (WNW) 19:30:48 ?
STRAND 1 01 Sep 19:31:11 19:34:03 15° 92° (E) 19:36:55 ?
Sapphire 01 Sep 19:48:27 19:48:50 10° 318° (NW) 19:49:12 437.095 MHz 1200 baud AX-25 AFSK
JAS-2 01 Sep 20:06:12 20:11:29 29° 262° (W) 20:16:19 435.800 - 435.900 CW/SSB, 435.910 FM
SO-67 01 Sep 20:13:58 20:17:25 78° 77° (ENE) 20:20:53 435.3500 MHz FM
RS-15 01 Sep 20:26:26 20:33:08 18° 260° (W) 20:40:01 29.354 - 29.394 USB, Beacon 29.352 USB
STRAND 1 01 Sep 21:08:34 21:13:33 55° 287° (WNW) 21:18:31 ?
UKube-1 01 Sep 21:13:30 21:13:46 10° 63° (ENE) 21:14:03 145.840 MHz, 145.915 MHz
HO-68 01 Sep 21:35:36 21:42:29 55° 69° (ENE) 21:49:24 435.675 MHz FM
KITSAT 1 01 Sep 22:26:59 22:31:11 15° 100° (E) 22:35:22 435.175 FM
UKube-1 01 Sep 22:45:03 22:49:22 68° 258° (WSW) 22:53:42 145.840 MHz, 145.915 MHz
Oscar 11 01 Sep 22:48:45 22:53:05 79° 76° (ENE) 22:57:27 145.825 FM, Beacon 2401.500 USB
Saudisat 1A 01 Sep 23:19:48 23:24:11 72° 301° (WNW) 23:28:36 436.775 MHz
FUNcube-1 01 Sep 23:20:51 23:24:58 66° 76° (ENE) 23:29:13 145.950 - 145.970 MHz USB
AO-40 01 Sep 23:23:27 04:06:12 38° 140° (SE) 05:37:45 Beacon 2401.320
HO-68 01 Sep 23:24:47 23:30:28 25° 265° (W) 23:36:11 435.675 MHz FM
MaSat-1 01 Sep 23:44:31 23:48:57 83° 247° (WSW) 23:52:42 437.345 MHz
KITSAT 1 02 Sep 00:17:19 00:25:25 88° 117° (ESE) 00:33:33 435.175 FM
PCSat 02 Sep 01:36:23 01:39:55 17° 48° (NE) 01:43:26 145.825 MHz
Oscar 10/S400 02 Sep 02:07:51 03:05:36 57° 211° (SSW) 11:07:58 145.825 - 145.975 CW/USB, Beacon 145.810 USB
KITSAT 1 02 Sep 02:15:48 02:21:51 22° 318° (NW) 02:27:55 435.175 FM
Oscar 16 02 Sep 02:18:12 02:21:26 16° 93° (E) 02:24:38 437.025 USB, Beacon 2401.1428
Sapphire 02 Sep 02:49:14 02:54:37 61° 61° (ENE) 02:59:58 437.095 MHz 1200 baud AX-25 AFSK
AO-27 02 Sep 02:50:55 02:53:28 14° 92° (E) 02:56:01 436.795 MHz FM
PCSat 02 Sep 03:18:27 03:23:51 69° 246° (WSW) 03:29:13 145.825 MHz
Oscar 19 02 Sep 03:20:33 03:25:44 68° 102° (ESE) 03:30:53 437.125 CW, 437.150 USB
AO-Echo 02 Sep 03:28:59 03:33:19 36° 98° (E) 03:37:41 ?
Gurwin Techsat 1B 02 Sep 03:32:11 03:35:21 16° 92° (E) 03:38:30 435.225 FM
Oscar 16 02 Sep 03:56:00 04:01:03 52° 287° (WNW) 04:06:04 437.025 USB, Beacon 2401.1428
ITAMSAT 1 02 Sep 03:58:27 04:03:37 67° 102° (ESE) 04:08:47 435.822 SSB
SO-50 02 Sep 03:59:50 04:04:13 66° 118° (ESE) 04:08:45 436.795 FM
Uribyol 2 02 Sep 04:07:45 04:12:58 88° 103° (ESE) 04:18:11 436.500 FM
TMSAT-1 02 Sep 04:20:46 04:25:36 35° 97° (E) 04:30:23 436.925 FM
JAS-1B 02 Sep 04:25:05 04:31:37 87° 285° (WNW) 04:37:23 435.800 - 435.900 CW/SSB
AO-27 02 Sep 04:28:14 04:33:21 62° 287° (WNW) 04:38:28 436.795 MHz FM
Sapphire 02 Sep 04:34:18 04:37:27 16° 256° (WSW) 04:40:36 437.095 MHz 1200 baud AX-25 AFSK
AO-7 02 Sep 04:38:47 04:43:03 15° 91° (E) 04:47:16 29.400 - 29.500 MHz
OPAL 02 Sep 04:55:34 05:00:14 39° 68° (ENE) 05:04:59 ?
Oscar 19 02 Sep 05:01:53 05:04:27 14° 298° (WNW) 05:07:00 437.125 CW, 437.150 USB
AO-Echo 02 Sep 05:08:26 05:11:51 20° 293° (WNW) 05:15:17 ?
Gurwin Techsat 1B 02 Sep 05:10:27 05:15:38 56° 287° (WNW) 05:20:48 435.225 FM
ITAMSAT 1 02 Sep 05:39:53 05:42:31 14° 297° (WNW) 05:45:09 435.822 SSB
SO-50 02 Sep 05:42:43 05:45:15 15° 316° (NW) 05:47:50 436.795 FM
UOSAT-12 02 Sep 05:45:16 05:49:47 61° 117° (ESE) 05:54:24 437.025 FM, 437.400 FM
Uribyol 2 02 Sep 05:50:32 05:51:40 11° 300° (WNW) 05:52:48 436.500 FM
Uosat F 02 Sep 05:59:57 06:04:54 58° 101° (E) 06:09:49 435.120 FM
TMSAT-1 02 Sep 06:00:59 06:05:19 26° 293° (WNW) 06:09:39 436.925 FM
JAS-1B 02 Sep 06:18:58 06:20:58 12° 306° (NW) 06:22:54 435.800 - 435.900 CW/SSB
RS-15 02 Sep 06:25:48 06:31:36 16° 99° (E) 06:37:19 29.354 - 29.394 USB, Beacon 29.352 USB
AO-7 02 Sep 06:28:27 06:36:47 87° 107° (ESE) 06:45:04 29.400 - 29.500 MHz
OPAL 02 Sep 06:35:19 06:39:12 22° 263° (W) 06:43:09 ?
STRAND 1 02 Sep 06:45:02 06:48:28 19° 65° (ENE) 06:51:54 ?
Hamsat 02 Sep 07:01:32 07:05:01 23° 95° (E) 07:08:27 145.90 MHz
JAS-2 02 Sep 07:15:59 07:20:53 35° 99° (E) 07:26:11 435.800 - 435.900 CW/SSB, 435.910 FM
UOSAT-12 02 Sep 07:27:23 07:30:21 17° 315° (NW) 07:33:20 437.025 FM, 437.400 FM
Uosat F 02 Sep 07:40:21 07:43:10 15° 297° (WNW) 07:45:59 435.120 FM
Saudisat 1A 02 Sep 07:48:45 07:53:00 45° 56° (NE) 07:57:13 436.775 MHz
KITSAT 1 02 Sep 08:13:38 08:20:36 30° 48° (NE) 08:27:29 435.175 FM
STRAND 1 02 Sep 08:22:21 08:27:15 48° 260° (W) 08:32:11 ?
AO-7 02 Sep 08:23:02 08:28:31 20° 306° (NW) 08:34:00 29.400 - 29.500 MHz
RS-15 02 Sep 08:31:02 08:42:10 81° 117° (ESE) 08:53:05 29.354 - 29.394 USB, Beacon 29.352 USB
Hamsat 02 Sep 08:37:17 08:40:54 26° 290° (WNW) 08:44:29 145.90 MHz
JAS-2 02 Sep 09:01:30 09:05:52 26° 291° (WNW) 09:10:32 435.800 - 435.900 CW/SSB, 435.910 FM
SO-67 02 Sep 09:12:51 09:16:16 59° 284° (WNW) 09:19:40 435.3500 MHz FM
Saudisat 1A 02 Sep 09:29:30 09:32:11 16° 251° (WSW) 09:34:51 436.775 MHz
KITSAT 1 02 Sep 10:08:32 10:16:27 62° 247° (WSW) 10:24:20 435.175 FM
ISS 02 Sep 10:19:25 10:22:43 70° 137° (SE) 10:26:01 145.800 FM
UKube-1 02 Sep 10:36:12 10:39:42 23° 96° (E) 10:43:10 145.840 MHz, 145.915 MHz
Oscar 11 02 Sep 10:39:53 10:42:45 17° 93° (E) 10:45:36 145.825 FM, Beacon 2401.500 USB
RS-15 02 Sep 10:46:28 10:55:44 30° 321° (NW) 11:05:01 29.354 - 29.394 USB, Beacon 29.352 USB
HO-68 02 Sep 10:52:59 11:00:09 70° 104° (ESE) 11:07:16 435.675 MHz FM
FUNcube-1 02 Sep 11:13:12 11:16:08 17° 93° (E) 11:19:03 145.950 - 145.970 MHz USB
ISS 02 Sep 11:57:33 11:59:45 16° 334° (NNW) 12:01:57 145.800 FM
PANSAT 02 Sep 12:04:34 12:07:23 19° 170° (S) 12:10:13 not established
UKube-1 02 Sep 12:12:11 12:15:49 27° 291° (WNW) 12:19:27 145.840 MHz, 145.915 MHz
Oscar 11 02 Sep 12:15:01 12:19:02 36° 288° (WNW) 12:23:01 145.825 FM, Beacon 2401.500 USB
SO-50 02 Sep 12:33:39 12:38:01 34° 53° (NE) 12:42:24 436.795 FM
HO-68 02 Sep 12:42:05 12:47:09 21° 301° (WNW) 12:52:13 435.675 MHz FM
FUNcube-1 02 Sep 12:48:21 12:52:39 42° 287° (WNW) 12:56:59 145.950 - 145.970 MHz USB
RS-15 02 Sep 13:08:23 13:13:26 14° 356° (N) 13:18:31 29.354 - 29.394 USB, Beacon 29.352 USB
JAS-1B 02 Sep 13:18:59 13:23:42 15° 56° (NE) 13:28:10 435.800 - 435.900 CW/SSB
MaSat-1 02 Sep 13:28:50 13:33:38 66° 111° (ESE) 13:38:45 437.345 MHz
